Regional Weather Roundup
Issued by NWS

Home | Current Version | Previous Version | Graphics & Text | Print | Product List | Glossary On
Versions: 1 2 3 4 5 6 7 8 9 10 11 12 13 14 15 16 17 18 19 20 21 22 23 24 25 26 27 28 29 30 31 32 33 34 35 36 37 38 39 40 41 42 43 44 45 46 47 48 49 50
000
ASUS43 KDMX 040306
RWRIA

WEATHER ROUNDUP FOR IOWA
NATIONAL WEATHER SERVICE DES MOINES IA
900 PM CST SAT DEC 03 2016

NOTE: "FAIR" INDICATES FEW OR NO CLOUDS BELOW 12,000 FEET WITH NO
SIGNIFICANT WEATHER AND/OR OBSTRUCTIONS TO VISIBILITY.

* - THESE STATIONS ARE NOT NWS STATIONS...THUS NOT UNDER NWS
QUALITY CONTROL.  THEY ALSO DO NOT REPORT WEATHER SUCH
AS PRECIPITATION OR FOG.

IAZ001>003-012>014-020>022-031>034-043>046-040400-
   NORTHWEST IOWA

CITY           SKY/WX    TMP DP  RH WIND       PRES   REMARKS
CARROLL *      LGT SNOW  34  34 100 SE7       30.11F VSB 1   WCI  28
CHEROKEE *     LGT SNOW  32  32 100 S9        30.09F WCI  25
DENISON *      LGT SNOW  32  32 100 SE6       30.08F WCI  26
LE MARS *      CLOUDY    34  32  93 S9        30.09F WCI  26
ORANGE CITY *  CLOUDY    34  34 100 S9        30.07S WCI  26
SHELDON *      CLOUDY    34  34 100 S10G17    30.06F WCI  26
SIOUX CITY     CLOUDY    35  33  92 S10       30.09F WCI  27
SPENCER        LGT SNOW  33  33 100 S15       30.10F FOG     WCI  23
STORM LAKE *   LGT SNOW  32  32 100 SE13      30.09F WCI  22
$$

IAZ055>058-069>071-079>083-090>094-040400-
   SOUTHWEST IOWA

CITY           SKY/WX    TMP DP  RH WIND       PRES   REMARKS
ATLANTIC *     LGT SNOW  34  34 100 SE8       30.09F WCI  27
AUDUBON *      LGT SNOW  34  30  86 E7        30.10F WCI  28
CLARINDA *       N/A     39  36  87 SE7G13    30.13S WCI  34
COUNCIL BLFS * LGT SNOW  32  32 100 SE6       30.09S WCI  26
CRESTON *      MIX PCPN  37  34  87 SE14      30.12F WCI  29
HARLAN  *      LGT SNOW  32  32 100 SE5       30.13F WCI  27
LAMONI         CLOUDY    40  33  76 SE9       30.13F WCI  34
RED OAK *      MIX PCPN  37  36  93 SE10      30.11S WCI  30
SHENANDOAH *   MIX PCPN  37  36  93 SE9       30.10F WCI  31
$$

IAZ047>049-059>061-072>074-084-040400-
   CENTRAL IOWA

CITY           SKY/WX    TMP DP  RH WIND       PRES   REMARKS
AMES           LGT RAIN  36  34  92 SE12      30.15F WCI  28
ANKENY *       MIX PCPN  36  36 100 E10       30.16F WCI  28
BOONE *        MIX PCPN  34  34 100 SE15      30.13F WCI  24
CHARITON *       N/A     37  32  81 SE10      30.15S WCI  30
DES MOINES     LGT RAIN  37  33  85 SE9       30.15F WCI  30
GRINNELL*      CLOUDY    36  31  82 E9        30.18F WCI  29
KNOXVILLE *    CLOUDY    37  32  81 E7        30.15F WCI  32
MARSHALLTOWN   CLOUDY    35  32  88 SE12      30.17F WCI  27
NEWTON *       CLOUDY    36  32  87 SE12G18   30.17F WCI  27
PELLA *        DRIZZLE   37  32  81 SE10G16   30.19F WCI  30
PERRY *        DRIZZLE   36  35  99 SE12      30.13F WCI  27
$$

IAZ004>006-015-016-023>025-035-036-040400-
   NORTH CENTRAL IOWA

CITY           SKY/WX    TMP DP  RH WIND       PRES   REMARKS
ALGONA *       LGT SNOW  34  34 100 SE13      30.12S WCI  25
CLARION *      CLOUDY    34  34 100 SE12      30.14S FOG     WCI  25
ESTHERVILLE    LGT SNOW  32  32 100 S10       30.10F FOG     WCI  24
FORT DODGE *   CLOUDY    34  30  86 SE8       30.14S WCI  27
MASON CITY     LGT SNOW  33  32  96 SE8       30.16F FOG     WCI  26
FOREST CITY *  LGT SNOW  32  32 100 SE7       30.13F WCI  26
WEBSTER CITY * LGT SNOW  34  34 100 SE12      30.12F WCI  25
IOWA FALLS *   LGT RAIN  35  33  94 SE7       30.16F WCI  29
$$

IAZ007>011-017>019-026>030-037>042-050>054-066-040400-
   NORTHEAST IOWA

CITY           SKY/WX    TMP DP  RH WIND       PRES   REMARKS
CEDAR RAPIDS   CLOUDY    35  29  78 SE8       30.21F WCI  29
CHARLES CITY * LGT SNOW  34  34 100 S8        30.18S WCI  27
CLINTON *      CLOUDY    34  27  75 S6        30.26F WCI  29
DECORAH *      CLOUDY    32  28  86 SE6       30.18F WCI  26
DUBUQUE        CLOUDY    33  28  81 S8        30.22F WCI  26
MONTICELLO *   MOCLDY    36  30  80 S8        30.23S WCI  29
OELWEIN *      CLOUDY    32  32 100 S7        30.20F FOG     WCI  26
WATERLOO       CLOUDY    34  31  88 SE6       30.19F WCI  29
$$

IAZ064-065-067-068-078-040400-
   EAST CENTRAL IOWA

CITY           SKY/WX    TMP DP  RH WIND       PRES   REMARKS
DAVENPORT      MOCLDY    34  26  72 S7        30.27S WCI  28
IOWA CITY      CLOUDY    36  29  75 SE8       30.25F WCI  30
MUSCATINE *    CLOUDY    36  28  75 SE9       30.26F WCI  29
QUAD CITIES    CLOUDY    34  26  72 S7        30.26F WCI  28
$$

IAZ062-063-075>077-085>089-095>099-040400-
   SOUTHEAST IOWA

CITY           SKY/WX    TMP DP  RH WIND       PRES   REMARKS
BURLINGTON     CLOUDY    35  30  82 SE10      30.23F WCI  27
FAIRFIELD *    CLOUDY    37  30  75 E12       30.19F WCI  30
FORT MADISON * CLOUDY    36  30  80 SE9       30.23F WCI  29
KEOKUK *       CLOUDY    37  32  81 SE9       30.22S WCI  31
OSKALOOSA *    CLOUDY    36  31  82 E12       30.19F WCI  27
CENTERVILLE *    N/A     37  32  81 SE13      30.17F WCI  29
OTTUMWA        CLOUDY    37  30  75 E13       30.17F WCI  29
WASHINGTON *   CLOUDY    36  30  80 SE15      30.22F WCI  26
$$

ABBREVIATIONS USED IN REMARKS
   TC - TEMPERATURES IN CELSIUS
  WCI - WIND CHILL INDEX
   HX - HEAT INDEX
  VSB - VISIBILITY
$$





USA.gov is the U.S. government's official web portal to all federal, state and local government web resources and services.